GLO1280 SBCF-SBPS

Flight info

Callsign GLO1280
Flight time N/A
Altitude 33000
Route KADOR DCT POSMU DCT OSUNO
Aircraft B738/M-SDFGIKLORWXY/LB1

Departure

Time 2026-05-08 15:37
Airport Tancredo Neves International Airport (SBCF)

Arrival

Time N/A
Airport Porto Seguro International Airport (SBPS)
Time Latitude Longitude Altitude Speed Heading
2026-05-08 15:14 -19.62823 -43.96858 2816 ft 0 kts 49°
2026-05-08 15:26 -19.62829 -43.96866 2810 ft 4 kts 46°
2026-05-08 15:26 -19.62849 -43.96884 2812 ft 4 kts 29°
2026-05-08 15:27 -19.62873 -43.96893 2814 ft 4 kts 351°
2026-05-08 15:27 -19.62889 -43.96885 2810 ft 1 kts 314°
2026-05-08 15:27 -19.62892 -43.96883 2810 ft 0 kts 314°
2026-05-08 15:31 -19.62891 -43.96883 2816 ft 1 kts 314°
2026-05-08 15:31 -19.62860 -43.96917 2812 ft 13 kts 316°
2026-05-08 15:32 -19.62791 -43.96989 2811 ft 14 kts 297°
2026-05-08 15:32 -19.62822 -43.97078 2815 ft 13 kts 230°
2026-05-08 15:32 -19.62824 -43.97154 2812 ft 11 kts 309°
2026-05-08 15:32 -19.62767 -43.97206 2815 ft 11 kts 320°
2026-05-08 15:33 -19.62711 -43.97255 2812 ft 10 kts 320°
2026-05-08 15:33 -19.62656 -43.97303 2815 ft 10 kts 320°
2026-05-08 15:33 -19.62603 -43.97350 2811 ft 10 kts 320°
2026-05-08 15:33 -19.62552 -43.97395 2815 ft 10 kts 320°
2026-05-08 15:34 -19.62502 -43.97440 2811 ft 9 kts 319°
2026-05-08 15:34 -19.62453 -43.97484 2813 ft 9 kts 319°
2026-05-08 15:34 -19.62407 -43.97527 2813 ft 9 kts 316°
2026-05-08 15:34 -19.62366 -43.97573 2812 ft 9 kts 314°
2026-05-08 15:35 -19.62323 -43.97618 2814 ft 10 kts 316°
2026-05-08 15:35 -19.62267 -43.97677 2813 ft 12 kts 316°
2026-05-08 15:35 -19.62247 -43.97752 2814 ft 12 kts 237°
2026-05-08 15:35 -19.62318 -43.97784 2813 ft 11 kts 185°
2026-05-08 15:36 -19.62394 -43.97772 2814 ft 11 kts 152°
2026-05-08 15:36 -19.62407 -43.97761 2809 ft 0 kts 139°
2026-05-08 15:36 -19.62593 -43.97587 2809 ft 73 kts 138°
2026-05-08 15:37 -19.63154 -43.97070 2813 ft 139 kts 139°
2026-05-08 15:37 -19.63998 -43.96266 2947 ft 180 kts 136°
2026-05-08 15:37 -19.64885 -43.95311 3745 ft 179 kts 131°
2026-05-08 15:37 -19.65776 -43.94371 4492 ft 178 kts 137°
2026-05-08 15:38 -19.66722 -43.93526 4924 ft 182 kts 134°
2026-05-08 15:38 -19.67246 -43.92355 5297 ft 180 kts 85°
2026-05-08 15:38 -19.67169 -43.91821 5434 ft 180 kts 71°